715  
ASUS43 KDMX 231006  
RWRIA  
 
WEATHER ROUNDUP FOR IOWA  
NATIONAL WEATHER SERVICE DES MOINES IA  
500 AM CDT TUE JUL 23 2024  
 
NOTE: "FAIR" INDICATES FEW OR NO CLOUDS BELOW 12,000 FEET WITH NO  
SIGNIFICANT WEATHER AND/OR S TO VISIBILITY
.  
 
* - THESE STATIONS ARE NOT NWS STATIONS...THUS NOT UNDER NWS  
QUALITY CONTROL. THEY ALSO DO NOT REPORT WEATHER SUCH  
AS PRECIPITATION OR FOG.
 
 
IAZ001>003-012>014-020>022-031>034-043>046-231100-  
NORTHWEST IOWA  
 
CITY SKY/WX TMP DP RH WIND PRES REMARKS
 
CARROLL * MOCLDY N/A N/A N/A CALM 30.01S  
CHEROKEE * CLEAR 64 63 94 S5 30.02R TC 18  
DENISON * CLEAR N/A N/A N/A CALM 30.04S  
LE MARS * CLEAR 64 64 100 S3 30.00S TC 18  
MAURICE * CLOUDY 66 66 100 SW3 29.99F TC 19  
SHELDON * PTCLDY 63 63 100 CALM 30.00S FOG TC 17  
SIOUX CITY CLEAR 63 62 97 SE3 30.02S TC 17  
SPENCER CLEAR 65 61 87 SW5 30.01S TC 18  
STORM LAKE * N/A 64 64 100 SW6 30.03S TC 18  

 
 
IAZ055>058-069>071-079>083-090>094-231100-  
SOUTHWEST IOWA  
 
CITY SKY/WX TMP DP RH WIND PRES REMARKS
 
ATLANTIC * FOG 61 61 100 CALM 30.03S VSB 1/2 TC 16  
AUDUBON * N/A 57 57 100 CALM 30.04S TC 14  
CLARINDA * FOG 61 N/A N/A CALM 30.05R VSB 1/2 TC 16  
COUNCIL BLFS * CLEAR 68 68 100 SW5 30.02S TC 20  
CRESTON * CLEAR 64 64 100 W3 30.04R TC 18  
HARLAN * FOG 61 61 100 CALM 30.04S VSB 1 TC 16  
LAMONI CLEAR 65 64 97 W3 30.04R TC 18  
RED OAK * FOG 63 63 100 CALM 30.04R VSB 1/2 TC 17  
SHENANDOAH * PTCLDY 63 63 100 CALM 30.02S TC 17  

 
 
IAZ047>049-059>061-072>074-084-231100-  
CENTRAL IOWA  
 
CITY SKY/WX TMP DP RH WIND PRES REMARKS
 
AMES CLEAR 65 62 90 W5 30.01R TC 18  
ANKENY * CLEAR 63 63 100 CALM 30.02R FOG TC 17  
BOONE * CLEAR N/A N/A N/A W7 30.00S  
CHARITON * PTCLDY 64 64 100 SW6 30.02S TC 18  
DES MOINES PTCLDY 66 63 90 SW5 30.02S TC 19  
KNOXVILLE * CLEAR 64 63 94 SW6 30.02R TC 18  
MARSHALLTOWN CLEAR 66 64 93 W6 30.00S TC 19  
NEWTON * CLEAR 63 63 100 SW5 30.00S TC 17  
PELLA * CLEAR 66 63 91 SW5 30.02S TC 19  

 
 
IAZ004>006-015-016-023>025-035-036-231100-  
NORTH CENTRAL IOWA  
 
CITY SKY/WX TMP DP RH WIND PRES REMARKS
 
ALGONA * CLEAR 66 66 100 W5G12 29.99S TC 19  
CLARION * MOCLDY N/A N/A N/A SW5 30.01R  
ESTHERVILLE CLEAR 66 64 93 CALM 30.00S TC 19  
FORT DODGE * CLEAR N/A N/A N/A SW5 30.01S  
MASON CITY CLEAR 67 65 93 W7 30.00S TC 19  
FOREST CITY * CLEAR 63 63 100 SW3 30.00R TC 17  
WEBSTER CITY * CLEAR N/A N/A N/A SW8 29.99S  
IOWA FALLS * CLEAR 66 63 90 SW6 30.01S TC 19  

 
 
IAZ007>011-017>019-026>030-037>042-050>054-066-231100-  
NORTHEAST IOWA  
 
CITY SKY/WX TMP DP RH WIND PRES REMARKS
 
CEDAR RAPIDS CLEAR 63 63 100 S3 29.99S FOG TC 17  
CHARLES CITY * CLEAR 64 64 100 W5 29.98S TC 18  
CLINTON * FOG N/A N/A N/A CALM 30.01S VSB 1/4  
DECORAH * CLOUDY 66 66 100 CALM 29.96S TC 19  
DUBUQUE CLEAR 62 61 96 SW5 29.99F TC 17  
MONTICELLO * CLEAR 61 61 100 CALM 29.98S FOG TC 16  
OELWEIN * CLEAR 64 64 100 SW5 29.99R TC 18  
WATERLOO CLEAR 67 64 90 SW6 29.97S TC 19  

 
 
IAZ064-065-067-068-078-231100-  
EAST CENTRAL IOWA  
 
CITY SKY/WX TMP DP RH WIND PRES REMARKS
 
DAVENPORT CLEAR 64 62 93 SW3 30.02S TC 18  
IOWA CITY CLEAR 65 62 90 CALM 30.01S TC 18  
MT. PLEASANT * CLEAR 61 61 100 CALM 30.02S FOG TC 16  
MUSCATINE * FOG 63 63 100 CALM 30.01S VSB 1/4 TC 17  
QUAD CITIES CLEAR 65 62 90 CALM 30.00S TC 18  

 
 
IAZ062-063-075>077-085>089-095>099-231100-  
SOUTHEAST IOWA  
 
CITY SKY/WX TMP DP RH WIND PRES REMARKS
 
BURLINGTON CLEAR 63 63 100 W3 30.02R TC 17  
FAIRFIELD * MOCLDY 61 61 100 CALM 30.01S TC 16  
FORT MADISON * CLEAR 61 61 100 SW2 30.02R TC 16  
OSKALOOSA * CLEAR 63 61 95 SW3 30.02S TC 17  
WASHINGTON * CLEAR 63 63 100 CALM 30.00S FOG TC 17  

 
 
ABBREVIATIONS USED IN REMARKS  
TC - TEMPERATURES IN CELSIUS  
WCI - WIND CHILL INDEX  
HX - HEAT INDEX  
VSB - VISIBILITY  

 
 
 
 
CLICK HERE TO GO TO PREVIOUS BULLETINS.

The Nexlab IA Page Main Text Page